Location: ????????
(55.0559°N, 39.1270°E)
Time: 17:15:54
(UTC+00:00)

Cosmos 1980 - Pass Details

Date: 15 November 2025
Orbit: 836 x 847 km, 71.0° (Epoch: 14 December)

Event Time Altitude Azimuth Distance (km) Brightness Sun altitude
Exits shadow 01:40:35 52° 178° (S) 1,037 4.0 -27.6°
Maximum altitude 01:41:50 69° 118° (ESE) 902 3.9 -27.4°
Drops below altitude 10° 01:47:29 10° 36° (NE) 2,478 6.6 -26.6°
Sets 01:49:57 0° 35° (NE) 3,418 7.4 -26.2°
